Volver al catálogo

USA 449

ActivoMilitarVLEO
NORAD 62348·PAYLOAD·🇺🇸 United States

Lanzado Dec 17, 2024 desde Vandenberg Space Force Base

Loading…

Próximos Pases (próximas 24 horas)

TLE

ObsoletoSource: Mike McCants

Época: Aug 11, 2026, 22:36 UTC

1 62348U 24243J   26223.94216824 0.00000000  00000-0  00000-0 0    02
2 62348  70.0126 156.9518 0005000 351.3755   8.6245 14.96713151    03

Sigue USA 449 en tiempo real con AllMySat

Download on the App Store